User: anonymous   Login
Location: Huntington Beach
(33.6600°N, 117.9980°W)
Time: 04:41:26
(UTC-07:00)
Language:

SL-16 R/B - Orbit

View from above orbital plane
View from above orbital plane
View from above satellite
View from above satellite

Ground track
Ground track

The orbit data is extracted from the following two-line orbital elements,

1 28353U 04021B   17082.91542004 -.00000247 +00000-0 -10444-3 0  9992
2 28353 070.9999 257.2930 0006884 310.7861 049.2663 14.14194452660092
Epoch (UTC): 23 March 2017 21:58:12
Eccentricity: 0.0006884
inclination: 70.9999°
perigee height: 840 km
apogee height: 850 km
right ascension of ascending node: 257.2930°
argument of perigee: 310.7861°
revolutions per day: 14.14194452
mean anomaly at epoch: 49.2663°
orbit number at epoch: 66009

The dashed part of the orbit path shows where the satellite is in the earth's shadow,  

DLR